Location: Unspecified
(42.2936°N, 3.1641°W)
Time: 15:50:32
(UTC+02:00)

X-37B - Pass Details

Date: 13 March 2021
Orbit: 380 x 394 km, 45.0° (Epoch: 07 April)

Event Time Altitude Azimuth Distance (km) Brightness Sun altitude
Rises 21:28:37 0° 264° (W) 2,271 5.5 -24.7°
Reaches altitude 10° 21:30:42 10° 268° (W) 1,419 4.3 -25.1°
Enters shadow 21:32:18 26° 278° (W) 809 2.8 -25.4°
